DW1065 Askim NO current weather conditions

sailwx.info

Wind from 214 at 4 knots gusting 11

Air temperature 19.4° C
Dewpoint 14.3° C

Last reported at 2019-Jun-18 14:05 UTC.
Time now 2019-Jun-18 14:59 UTC

Location: N 59°36' E 011°11'.
View on Google Maps.

See reports from other nearby stations

  
Tides and Currents Weather Stations Pressure Air Temp Water Temp Dewpoint Dewpoint Depression Visibility Wind Speed Wind Dir Waves Ship Positions
date/time (UTC)wind fromknots sea level pressurealtimeterstation pressurevisibilityair tempwater tempwave heightnotes
2019-Jun-18 14:05 214 4 gusting 11 19.4
2019-Jun-18 13:55 206 5 gusting 10 19.4
2019-Jun-18 13:45 216 5 gusting 8 19.4
2019-Jun-18 13:35 236 4 gusting 11 19.4
2019-Jun-18 13:25 264 3 gusting 15 20.0
2019-Jun-18 13:15 230 4 gusting 10 20.0
2019-Jun-18 13:05 256 3 gusting 11 20.0
2019-Jun-18 12:55 246 3 gusting 10 19.4
2019-Jun-18 12:45 220 3 gusting 10 19.4
2019-Jun-18 12:35 187 1 gusting 7 18.9
2019-Jun-18 12:25 171 2 gusting 10 18.3
2019-Jun-18 12:15 205 4 gusting 10 17.8
2019-Jun-18 12:05 206 2 gusting 8 17.2
2019-Jun-18 11:55 182 0 gusting 10 17.2
2019-Jun-18 11:45 220 2 gusting 7 17.2
2019-Jun-18 11:35 198 4 gusting 7 17.2
2019-Jun-18 11:25 211 0 gusting 11 16.7
2019-Jun-18 11:15 218 4 gusting 11 16.7
2019-Jun-18 11:05 183 5 gusting 11 16.7
2019-Jun-18 10:55 208 5 gusting 10 16.7
2019-Jun-18 10:45 199 1 gusting 10 16.1
2019-Jun-18 10:35 220 5 gusting 10 16.1
2019-Jun-18 10:25 224 3 gusting 10 16.1
2019-Jun-18 10:15 196 4 gusting 8 16.1
2019-Jun-18 10:05 229 2 gusting 12 16.1
2019-Jun-18 09:55 212 6 gusting 12 15.6
2019-Jun-18 09:45 232 3 gusting 12 15.6
2019-Jun-18 09:35 209 4 gusting 10 15.6
2019-Jun-18 09:25 213 0 gusting 11 15.6
2019-Jun-18 09:15 195 1 gusting 11 15.6
2019-Jun-18 09:05 221 2 gusting 6 15.6
2019-Jun-18 08:55 215 1 gusting 6 15.0
2019-Jun-18 08:45 180 2 gusting 10 15.0
2019-Jun-18 08:35 181 0 gusting 7 15.0
2019-Jun-18 08:25 185 1 gusting 8 14.4
2019-Jun-18 08:15 153 2 gusting 10 14.4
2019-Jun-18 08:05 155 0 gusting 5 14.4
2019-Jun-18 07:55 177 1 gusting 6 14.4
2019-Jun-18 07:45 156 0 gusting 5 14.4
2019-Jun-18 07:35 168 0 gusting 6 14.4
2019-Jun-18 07:25 181 1 gusting 6 14.4
2019-Jun-18 07:15 113 13.9
2019-Jun-18 07:05 179 0 gusting 7 13.9
2019-Jun-18 06:55 175 0 gusting 6 13.9
2019-Jun-18 06:45 180 0 gusting 6 13.9
2019-Jun-18 06:35 175 0 gusting 5 13.9
2019-Jun-18 06:25 175 0 gusting 2 13.9
2019-Jun-18 06:15 174 0 gusting 4 13.9
2019-Jun-18 06:05 174 0 gusting 6 13.9
2019-Jun-18 05:55 171 13.9
2019-Jun-18 05:45 175 13.9
2019-Jun-18 05:35 174 13.9
2019-Jun-18 05:25 174 1 gusting 6 13.9
2019-Jun-18 05:15 193 0 gusting 5 13.9
2019-Jun-18 05:05 181 2 gusting 6 13.9
2019-Jun-18 04:55 199 0 gusting 6 13.3
2019-Jun-18 04:45 210 1 gusting 8 13.3
2019-Jun-18 04:35 214 2 gusting 6 12.8
2019-Jun-18 04:25 198 1 gusting 6 12.8
2019-Jun-18 04:15 230 4 gusting 6 12.8
2019-Jun-18 04:05 192 2 gusting 6 12.8
2019-Jun-18 03:55 204 1 gusting 6 12.2
2019-Jun-18 03:45 208 1 gusting 7 12.2
2019-Jun-18 03:35 191 0 gusting 6 12.2
2019-Jun-18 03:25 253 1 gusting 6 12.2
2019-Jun-18 03:15 211 1 gusting 6 11.7
2019-Jun-18 03:05 209 1 gusting 7 11.7
2019-Jun-18 02:55 212 1 gusting 6 11.7
2019-Jun-18 02:45 221 1 gusting 6 11.7
2019-Jun-18 02:35 219 1 gusting 6 11.7
2019-Jun-18 02:25 213 1 gusting 6 11.7
2019-Jun-18 02:15 219 0 gusting 6 11.7
2019-Jun-18 02:05 204 2 gusting 6 11.7
2019-Jun-18 01:55 247 2 gusting 4 11.7
2019-Jun-18 01:45 212 2 gusting 7 12.2
2019-Jun-18 01:35 241 3 gusting 7 12.2
2019-Jun-18 01:25 231 0 gusting 6 12.2
2019-Jun-18 01:15 215 1 gusting 6 12.2
2019-Jun-18 01:05 224 1 gusting 5 12.2
2019-Jun-18 00:55 208 1 gusting 6 12.2
2019-Jun-18 00:45 240 3 gusting 7 12.2
2019-Jun-18 00:35 200 2 gusting 6 12.2
2019-Jun-18 00:25 246 1 gusting 6 12.2
2019-Jun-18 00:15 223 2 gusting 8 12.2
2019-Jun-18 00:05 230 3 gusting 10 12.2
2019-Jun-17 23:55 228 2 gusting 7 12.8
2019-Jun-17 23:45 215 1 gusting 7 12.8
2019-Jun-17 23:35 269 1 gusting 6 12.8
2019-Jun-17 23:25 243 1 gusting 10 12.8
2019-Jun-17 23:15 238 0 gusting 7 12.8
2019-Jun-17 23:05 258 1 gusting 7 12.8
2019-Jun-17 22:55 268 2 gusting 7 12.8
2019-Jun-17 22:45 217 1 gusting 7 13.3
2019-Jun-17 22:35 211 1 gusting 10 13.3
2019-Jun-17 22:25 240 0 gusting 7 13.3
2019-Jun-17 22:15 233 2 gusting 8 13.3
2019-Jun-17 22:05 226 2 gusting 11 13.3
2019-Jun-17 21:55 240 2 gusting 10 13.3
2019-Jun-17 21:45 217 2 gusting 8 13.3
2019-Jun-17 21:35 200 1 gusting 7 13.3
2019-Jun-17 21:25 274 3 gusting 10 13.9
2019-Jun-17 21:15 242 1 gusting 7 13.9
2019-Jun-17 21:05 223 2 gusting 10 13.9
2019-Jun-17 20:55 230 4 gusting 10 13.9
2019-Jun-17 20:45 252 2 gusting 11 13.9
2019-Jun-17 20:35 285 3 gusting 10 13.9
2019-Jun-17 20:25 229 3 gusting 10 13.9
2019-Jun-17 20:15 219 2 gusting 7 13.9
2019-Jun-17 20:05 232 4 gusting 10 13.9
2019-Jun-17 19:55 210 0 gusting 10 13.9
2019-Jun-17 19:45 216 3 gusting 10 13.9
2019-Jun-17 19:35 212 4 gusting 12 14.4
2019-Jun-17 19:25 224 3 gusting 11 14.4
2019-Jun-17 19:15 214 4 gusting 11 14.4
2019-Jun-17 19:05 186 2 gusting 8 14.4
2019-Jun-17 18:55 194 3 gusting 12 14.4
2019-Jun-17 18:45 211 5 gusting 13 15.0
2019-Jun-17 18:35 210 4 gusting 11 15.0
2019-Jun-17 18:25 208 4 gusting 12 15.6
2019-Jun-16 22:56 201 1 gusting 6 12.2
2019-Jun-16 22:46 186 2 gusting 7 12.8
2019-Jun-16 22:36 208 2 gusting 7 12.8
2019-Jun-16 22:26 199 2 gusting 10 12.8
2019-Jun-16 22:16 194 1 gusting 7 12.8
2019-Jun-16 22:06 198 1 gusting 8 12.8
2019-Jun-16 21:56 182 4 gusting 8 12.8
2019-Jun-16 21:46 178 2 gusting 6 12.8
2019-Jun-16 21:36 216 4 gusting 8 12.8
2019-Jun-16 21:26 194 2 gusting 6 12.8
2019-Jun-16 21:16 209 2 gusting 7 13.3
2019-Jun-16 21:06 200 1 gusting 10 13.3
2019-Jun-16 20:56 190 1 gusting 8 13.3
2019-Jun-16 20:46 209 4 gusting 7 13.3
2019-Jun-16 20:36 178 1 gusting 6 13.9
2019-Jun-16 20:26 187 2 gusting 8 13.9
2019-Jun-16 20:16 174 4 gusting 8 13.9
2019-Jun-16 19:56 200 1 gusting 7 14.4
2019-Jun-16 19:46 198 1 gusting 8 15.0
2019-Jun-16 19:36 190 3 gusting 10 15.0
2019-Jun-16 19:26 205 4 gusting 10 15.0
2019-Jun-16 19:16 204 2 gusting 10 15.6
2019-Jun-16 19:06 224 4 gusting 10 15.6
2019-Jun-16 18:56 221 2 gusting 10 15.6
2019-Jun-16 18:46 180 3 gusting 8 16.1
2019-Jun-16 18:36 196 1 gusting 6 16.1
2019-Jun-16 18:26 220 2 gusting 7 16.1
2019-Jun-16 18:16 222 0 gusting 8 16.7
2019-Jun-16 18:06 246 4 gusting 8 16.7
2019-Jun-16 17:56 221 3 gusting 10 16.7
2019-Jun-16 17:46 178 0 gusting 6 16.7
2019-Jun-16 17:36 236 1 gusting 5 16.7
2019-Jun-16 17:26 194 1 gusting 6 16.1
2019-Jun-16 17:16 192 2 gusting 6 16.1
2019-Jun-16 17:06 200 3 gusting 6 16.1
2019-Jun-16 16:56 179 3 gusting 7 16.1
2019-Jun-16 16:46 204 1 gusting 6 16.1
2019-Jun-16 16:36 214 4 gusting 6 16.1
2019-Jun-16 16:26 211 1 gusting 6 15.6
2019-Jun-16 16:16 222 1 gusting 7 16.1
2019-Jun-16 16:06 219 3 gusting 7 16.1
2019-Jun-16 15:56 203 0 gusting 6 16.1
2019-Jun-16 15:46 220 1 gusting 6 16.1
2019-Jun-16 15:36 248 1 gusting 6 16.1
2019-Jun-16 15:26 220 2 gusting 6 16.1
2019-Jun-16 15:16 232 0 gusting 6 16.1
2019-Jun-16 15:06 242 1 gusting 6 16.1
2019-Jun-16 14:56 221 2 gusting 7 16.1
2019-Jun-16 14:46 212 3 gusting 8 16.1
2019-Jun-16 14:36 224 2 gusting 7 16.1
2019-Jun-16 14:26 208 2 gusting 7 16.1
2019-Jun-16 14:16 221 1 gusting 6 16.7
2019-Jun-16 14:06 210 2 gusting 8 16.7